Location: Songkhla
(7.2000°N, 100.6000°E)
Time: 10:12:22
(UTC+07:00)

First-Move - Pass Details

Date: 07 August 2021
Orbit: 576 x 665 km, 97.6° (Epoch: 24 September)

Event Time Altitude Azimuth Distance (km) Brightness Sun altitude
Rises 03:36:50 0° 48° (NE) 2,989 ? -36.7°
Reaches altitude 10° 03:40:45 10° 82° (E) 2,082 ? -35.8°
Maximum altitude 03:42:07 11° 100° (E) 2,001 ? -35.5°
Drops below altitude 10° 03:43:28 10° 117° (ESE) 2,082 ? -35.2°
Enters shadow 03:44:07 - 125° (SE) 2,173 ? -35.0°
